Погода в Жакареи

Бразилия     23°18′15″S   45°57′44″W
темп.,
°C
ветер,
м/с
пор.,
м/с
влажн.,
%
обл.,
%
осадки,
мм/ч
давл.,
гПа
погр.,
м
27 февраля, сб
сб2700:00+20св2489100 0.4 1015219
03:00+19всв139071 0.4 1013221
06:00+18св129036 0.0 1014171
09:00+20в018264 0.0 1016343
12:00+24сз117094 0.4 1015505
15:00+23всв467792 3.7 1013532
18:00+22в347787 2.5 1013336
21:00+21всв248193 3.1 1015226
28 февраля, вс
вс2800:00+20всв0183100 0.1 1015184
03:00+20св1285100 0.1 1013215
06:00+19св128692 0.0 1014181
09:00+22св237595 0.0 1015441
12:00+29юв125374 0.1 1014905
15:00+27зсз236573 2.9 1012891
18:00+23юв1277100 3.4 1012293
21:00+22вюв127892 3.5 1014187
1 марта, пн
пн100:00+20в118390 0.0 1014172
03:00+19св238791 0.0 1012179
06:00+18св23885 0.0 1013151
09:00+23св127018 0.0 1014439
12:00+30вюв115224 0.4 1013942
15:00+30зюз334952 1.3 10111433
18:00+26ююз116646 0.9 1011397
21:00+23вюв127458 1.0 1013188
2 марта, вт
вт200:00+21ссв128092 0.0 1014207
03:00+20ссв128489 0.0 1013178
06:00+19св128580 0.0 1014158
09:00+24ссв127090 0.0 1015435
12:00+30ююв115399 0.4 10141012
15:00+28з346394 4.9 1012961
18:00+26зсз016998 1.3 1012425
21:00+23ю127699 2.5 1015294
3 марта, ср
ср300:00+22ссз1281100 0.1 1015200
03:00+21с118498 0.3 1014190
06:00+20ссв128478 0.3 1016156
09:00+22ссв117887 1.3 1017238
12:00+29зсз235788 1.9 10161108
15:00+26ююз126482 4.3 1014729
18:00+25в117072 1.9 1014359
21:00+22всв127886 3.5 1016132